| time (UTC) | temp C | wind direction | speed KPH | gust KPH | rain 1hr cm | rain 24hr cm | rain mn cm | humidity % | barometer mb |
| 20260506095255 | 18 | 210 | 8.0 | 9.7 | 0.00 | 0.00 | 0.00 | 56 | 1009.7 |
| 20260506092251 | 18 | 182 | 4.8 | 4.8 | 0.00 | 0.00 | 0.00 | 55 | 1010.4 |
| 20260506085251 | 19 | 221 | 4.8 | 4.8 | 0.00 | 0.00 | 0.00 | 53 | 1010.4 |
| 20260506082248 | 19 | 150 | 4.8 | 4.8 | 0.00 | 0.00 | 0.00 | 52 | 1010.7 |
| 20260506072240 | 20 | 200 | 3.2 | 3.2 | 0.00 | 0.00 | 0.00 | 51 | 1010.7 |
| 20260506062235 | 20 | 222 | 4.8 | 4.8 | 0.00 | 0.00 | 0.00 | 50 | 1011.4 |
| 20260506042229 | 18 | 120 | 3.2 | 3.2 | 0.00 | 0.00 | 0.00 | 55 | 1012.5 |
| 20260506035229 | 19 | 168 | 0.0 | 0.0 | 0.00 | 0.00 | 0.00 | 52 | 1012.1 |
| 20260506032229 | 19 | 148 | 0.0 | 0.0 | 0.00 | 0.00 | 0.00 | 51 | 1012.1 |
| 20260506025229 | 17 | 119 | 0.0 | 0.0 | 0.00 | 0.00 | 0.00 | 56 | 1012.1 |
| 20260506022228 | 16 | 162 | 0.0 | 0.0 | 0.00 | 0.00 | 0.00 | 65 | 1012.5 |
| 20260506015224 | 16 | 114 | 0.0 | 0.0 | 0.00 | 0.00 | 0.00 | 63 | 1012.1 |
| 20260506012222 | 16 | 174 | 0.0 | 0.0 | 0.00 | 0.00 | 0.00 | 61 | 1012.1 |
| 20260506005222 | 18 | 126 | 3.2 | 3.2 | 0.00 | 0.00 | 0.00 | 51 | 1011.4 |
| 20260506002217 | 18 | 138 | 4.8 | 4.8 | 0.00 | 0.00 | 0.00 | 52 | 1011.4 |
| 20260505235212 | 21 | 183 | 0.0 | 0.0 | 0.00 | 0.00 | 0.00 | 47 | 1011.4 |
| 20260505232212 | 24 | 256 | 6.4 | 6.4 | 0.00 | 0.00 | 0.00 | 33 | 1011.1 |
| 20260505225212 | 25 | 191 | 3.2 | 3.2 | 0.00 | 0.00 | 0.00 | 34 | 1010.7 |
| 20260505222209 | 25 | 293 | 4.8 | 4.8 | 0.00 | 0.00 | 0.00 | 39 | 1011.1 |
| 20260505215205 | 26 | 217 | 8.0 | 9.7 | 0.00 | 0.00 | 0.00 | 34 | 1010.7 |
| 20260505212205 | 26 | 258 | 6.4 | 6.4 | 0.00 | 0.00 | 0.00 | 31 | 1010.7 |
| 20260505205200 | 27 | 203 | 9.7 | 11.3 | 0.00 | 0.00 | 0.00 | 31 | 1010.7 |
| 20260505202158 | 27 | 252 | 6.4 | 6.4 | 0.00 | 0.00 | 0.00 | 31 | 1011.1 |
| 20260505195157 | 27 | 213 | 9.7 | 9.7 | 0.00 | 0.00 | 0.00 | 31 | 1011.1 |
| 20260505192157 | 26 | 258 | 9.7 | 9.7 | 0.00 | 0.00 | 0.00 | 35 | 1011.4 |
| 20260505185154 | 26 | 216 | 14.5 | 16.1 | 0.00 | 0.00 | 0.00 | 35 | 1011.7 |
| 20260505182153 | 26 | 240 | 8.0 | 8.0 | 0.00 | 0.00 | 0.00 | 40 | 1012.1 |
| 20260505175150 | 25 | 258 | 6.4 | 6.4 | 0.00 | 0.00 | 0.00 | 40 | 1012.5 |
| 20260505172149 | 25 | 276 | 11.3 | 12.9 | 0.00 | 0.00 | 0.00 | 39 | 1012.5 |
| 20260505165148 | 24 | 234 | 8.0 | 8.0 | 0.00 | 0.00 | 0.00 | 43 | 1013.2 |
| 20260505162143 | 24 | 262 | 9.7 | 9.7 | 0.00 | 0.00 | 0.00 | 44 | 1013.2 |
| 20260505152138 | 23 | 180 | 9.7 | 11.3 | 0.00 | 0.00 | 0.00 | 48 | 1013.5 |
| 20260505122120 | 18 | 210 | 8.0 | 8.0 | 0.00 | 0.00 | 0.00 | 64 | 1014.2 |
| 20260505115115 | 17 | 180 | 1.6 | 1.6 | 0.00 | 0.00 | 0.00 | 67 | 1014.5 |
| 20260505112114 | 13 | 228 | 0.0 | 0.0 | 0.00 | 0.00 | 0.00 | 80 | 1014.5 |
| 20260505102113 | 12 | 165 | 0.0 | 0.0 | 0.00 | 0.00 | 0.00 | 84 | 1013.9 |